Regional Weather Roundup
Issued by NWS Columbia, SC

Home | Current Version | Previous Version | Text Only | Print | Product List | Glossary On
Versions: 1 2 3 4 5 6 7 8 9 10 11 12 13 14 15 16 17 18 19 20 21 22 23 24 25 26 27 28 29 30 31 32 33 34 35 36 37 38 39 40 41 42 43 44 45 46 47 48 49 50
000
ASUS42 KCAE 191210
RWRCAE
REGIONAL WEATHER ROUNDUP
NATIONAL WEATHER SERVICE COLUMBIA SC
800 AM EDT FRI SEP 19 2014

NOTE: "FAIR" INDICATES FEW OR NO CLOUDS BELOW 12,000 FEET WITH NO
SIGNIFICANT WEATHER AND/OR OBSTRUCTIONS TO VISIBILITY.

NOT ALL STATIONS ARE QUALITY CONTROLLED BY THE NATIONAL
WEATHER SERVICE. USE DATA WITH CAUTION...ESPECIALLY
DEWPOINT OBSERVATIONS.

SCZ001>056-GAZ040-063>065-077-191300-
...UPSTATE SOUTH CAROLINA...

CITY           SKY/WX    TMP DP  RH WIND       PRES   REMARKS
ANDERSON       LGT RAIN  67  65  93 NE13      30.10R
6HR MIN TEMP:  67; 6HR MAX TEMP:  70; 6HR PCP:  0.01;

LIBERTY        DRIZZLE   66  66 100 NE5       30.10R
6HR MIN TEMP:  61; 6HR MAX TEMP:  81;

SPARTANBURG    FAIR      68 N/A N/A CALM      30.10R
CLEMSON        CLOUDY    69  64  84 NE7       30.12R
6HR MIN TEMP:  69; 6HR MAX TEMP:  71;

GREENVILLE     LGT RAIN  67  64  90 N8        30.12R
6HR MIN TEMP:  67; 6HR MAX TEMP:  68; 6HR PCP: TRACE;

GREENWOOD      LGT RAIN  67  64  90 E5        30.11R
6HR MIN TEMP:  66; 6HR MAX TEMP:  68; 6HR PCP:  1.40;

GREER          MOCLDY    67  65  93 NE8       30.10R
6HR MIN TEMP:  65; 6HR MAX TEMP:  67;

ROCK HILL      CLOUDY    66  64  93 VRB3      30.13R
6HR MIN TEMP:  65; 6HR MAX TEMP:  67; 6HR PCP:  0.01;

CHESTER        FAIR      68  64  88 E7        30.16R
LAURENS        FAIR      64 N/A N/A E3        30.11R


...CENTRAL SOUTH CAROLINA...

CITY           SKY/WX    TMP DP  RH WIND       PRES   REMARKS
COLUMBIA APT   HVY RAIN  67  63  87 E15       30.07F VSB 1
6HR MIN TEMP:  65; 6HR MAX TEMP:  71; 6HR PCP:  1.15;

COLUMBIA OWENS TSTM      66  62  87 E8G30     30.09R VSB 1/4
6HR MIN TEMP:  65; 6HR MAX TEMP:  72; 6HR PCP:  1.59;

DARLINGTON     CLOUDY    66  61  82 NE8       30.10R
6HR MIN TEMP:  66; 6HR MAX TEMP:  70;

FLORENCE       PTSUNNY   68  62  81 E8        30.08R
6HR MIN TEMP:  66; 6HR MAX TEMP:  69;

MCENTIRE ANGB  MOCLDY    68  65  91 VRB5      30.08R
6HR MIN TEMP:  68; 6HR MAX TEMP:  69;

ORANGEBURG     MOCLDY    70  67  90 NE6       30.06R
6HR MIN TEMP:  69; 6HR MAX TEMP:  70;

SUMTER SHAW    CLOUDY    67  62  84 E6        30.06R
6HR MIN TEMP:  65; 6HR MAX TEMP:  68;

NEWBERRY       PTSUNNY   64  64 100 CALM      30.12R
AIKEN          CLOUDY    66  66 100 NE14      30.12R
BARNWELL       FAIR      70  70 100 NE5       30.05R FOG
MANNING        FAIR      70 N/A N/A CALM      30.06S
CAMDEN         LGT RAIN  66  64  94 N7        30.11R
LANCASTER      LGT RAIN  66  66 100 NE7       30.11R
WINNSBORO      RAIN      64  64 100 CALM      30.08R


...EASTERN AND COASTAL SOUTH CAROLINA...

CITY           SKY/WX    TMP DP  RH WIND       PRES   REMARKS
MYRTLE BEACH   MOSUNNY   70  63  78 NE10      30.07R
N MYRTLE BCH   MOSUNNY   68  63  84 NE8       30.08R
6HR MIN TEMP:  67; 6HR MAX TEMP:  70;

CONWAY         FAIR      66  66 100 NE7       30.08R
HARTSVILLE     FAIR      68  54  60 NE8       30.11R
FLORENCE       PTSUNNY   68  62  81 E8        30.08R
6HR MIN TEMP:  66; 6HR MAX TEMP:  69;

DARLINGTON     CLOUDY    66  61  82 NE8       30.10R
6HR MIN TEMP:  66; 6HR MAX TEMP:  70;

CHARLESTON APT PTSUNNY   73  68  84 E5        30.05R
6HR MIN TEMP:  72; 6HR MAX TEMP:  73;

MOUNT PLEASANT FAIR      72  70  94 SE6       30.05R
WALTERBORO     PTSUNNY   72 N/A N/A E7        30.05R
BEAUFORT       CLOUDY    73  71  93 W6        30.03R
6HR MIN TEMP:  71; 6HR MAX TEMP:  73;



...EASTERN GEORGIA...

CITY           SKY/WX    TMP DP  RH WIND       PRES   REMARKS
AUGUSTA BUSH F MOCLDY    67  66  97 CALM      30.05R FOG
6HR MIN TEMP:  65; 6HR MAX TEMP:  68;

AUGUSTA DANIEL MOCLDY    71  68  90 NE7       30.06R
6HR MIN TEMP:  70; 6HR MAX TEMP:  73;

THOMSON        MOCLDY    67  67 100 CALM      30.11R
6HR MIN TEMP:  65; 6HR MAX TEMP:  69;

WASHINGTON     MOCLDY    68 N/A N/A CALM      30.07R HAZE
CLAXTON        FAIR     N/A N/A N/A CALM      30.02R HAZE
SYLVANIA       CLOUDY    72  71  98 CALM      30.05R FOG
6HR MIN TEMP:  71; 6HR MAX TEMP:  74;

STATESBORO     CLOUDY    69  69 100 CALM      30.03R
6HR MIN TEMP:  68; 6HR MAX TEMP:  71;

SAVANNAH       CLOUDY    72  69  90 N3        30.03R
6HR MIN TEMP:  71; 6HR MAX TEMP:  74;



...SOUTHERN NORTH CAROLINA...

CITY           SKY/WX    TMP DP  RH WIND       PRES   REMARKS
CHARLOTTE      CLOUDY    67  64  90 NE6       30.13R
6HR MIN TEMP:  67; 6HR MAX TEMP:  69; 6HR PCP:  0.02;

MONROE         CLOUDY    66  64  93 NE6       30.12R
6HR MIN TEMP:  66; 6HR MAX TEMP:  67; 6HR PCP:  0.34;

WADESBORO      CLOUDY    66  63  89 CALM      30.12R
6HR MIN TEMP:  66; 6HR MAX TEMP:  70; 6HR PCP:  0.03;

ROCKINGHAM     CLOUDY    66  57  71 E5        30.11R
6HR MIN TEMP:  66; 6HR MAX TEMP:  69;

RUTHERFORDTON  PTCLDY    63  62  97 NW6       30.14R FOG
6HR MIN TEMP:  62; 6HR MAX TEMP:  65;

ASHEVILLE      CLOUDY    60  59  96 CALM      30.17R FOG
6HR MIN TEMP:  59; 6HR MAX TEMP:  65;


$$


USA.gov is the U.S. government's official web portal to all federal, state and local government web resources and services.